map of QOW home
QOW - Airport
Location
City:  Owerri, Imo, Nigeria
Name:Sam Mbakwe Airport
Old (Alt.):Imo Start Airport
ICAO:DNIM
IATA:QOW

Details
Type:Airport (Aerodrome, Airfield)
Latitude:525'37"N (5.427056)
Longitude:712'22"E (7.206031)
Datum:WGS 1984
Elevation:373 ft (114 m)
Variation:1.21W (WMM2015v2 magnetic declination)
0.13 annual change
Runways:1
Longest:8858 × 148 ft (2700 × 45 m), paved

Time
Time Zone:UTC+1
Local Time:

Weather
TAF:DNIM 040930Z 0412/0518 20010KT 8000 BKN010
TEMPO 0414/0418 TS BKN013 FEW020CB
BECMG 0418/0420 00000KT SCT008

Related Locations
Nearby:
Farthest:CIS: 12235 mi / 19690 km
Kanton Island (Canton Island, Abariringa Island) [Canton Island Airport], P, KI

Find:

   beyond  
but within

Other Information
Maps:
NOTAMs:
Links:
Sources:

  
  • flag of Nigeria
  

Sectional Chart

Flight Planning
at skyvector.com

Satellite Image

Google Maps Satellite view

 

Copyright © 2004-2019 Karl L. Swartz. All rights reserved.
The Great Circle Mapper name and logo are trademarks of the Great Circle Mapper.
All other trademarks mentioned herein belong to their respective owners.
Please see credits for attibutions and further copyright information.

  Follow gcmap on Facebook Follow gcmap on Twitter GCmap on LinkedIn

hCard Microformat

Geo Microformat